| time (UTC) | temp C | wind direction | speed KPH | gust KPH | rain 1hr cm | rain 24hr cm | rain mn cm | humidity % | barometer mb |
| 20260506124545 | 6 | 115 | 0.0 | 0.0 | 0.00 | 0.00 | 0.00 | 68 | 1010.5 |
| 20260506123143 | 5 | 214 | 0.0 | 0.0 | 0.00 | 0.00 | 0.00 | 69 | 1010.3 |
| 20260506121640 | 6 | 150 | 0.0 | 0.0 | 0.00 | 0.00 | 0.00 | 67 | 1010.0 |
| 20260506120042 | 6 | 321 | 0.0 | 0.0 | 0.00 | 0.00 | 0.00 | 65 | 1009.8 |
| 20260506114534 | 6 | 309 | 0.0 | 0.0 | 0.00 | 0.00 | 0.00 | 63 | 1009.6 |
| 20260506113034 | 6 | 241 | 0.0 | 0.0 | 0.00 | 0.00 | 0.00 | 62 | 1009.4 |
| 20260506111530 | 6 | 290 | 0.0 | 0.0 | 0.00 | 0.00 | 0.00 | 62 | 1009.4 |
| 20260506110026 | 7 | 252 | 0.0 | 0.0 | 0.00 | 0.00 | 0.00 | 60 | 1009.2 |
| 20260506104524 | 8 | 46 | 0.0 | 0.0 | 0.00 | 0.00 | 0.00 | 60 | 1009.2 |
| 20260506103022 | 8 | 32 | 0.0 | 0.0 | 0.00 | 0.00 | 0.00 | 59 | 1008.7 |
| 20260506101520 | 8 | 43 | 0.0 | 0.0 | 0.00 | 0.00 | 0.00 | 60 | 1008.7 |
| 20260506100018 | 8 | 41 | 0.0 | 0.0 | 0.00 | 0.00 | 0.00 | 58 | 1008.5 |
| 20260506094519 | 10 | 310 | 0.0 | 0.0 | 0.00 | 0.00 | 0.00 | 55 | 1008.3 |
| 20260506093017 | 9 | 273 | 0.0 | 0.0 | 0.00 | 0.00 | 0.00 | 56 | 1008.2 |
| 20260506091516 | 9 | 148 | 0.0 | 0.0 | 0.00 | 0.00 | 0.00 | 57 | 1008.1 |
| 20260506090018 | 9 | 295 | 0.0 | 0.0 | 0.00 | 0.00 | 0.00 | 58 | 1007.9 |
| 20260506084509 | 9 | 295 | 0.0 | 0.0 | 0.00 | 0.00 | 0.00 | 57 | 1007.8 |
| 20260506083006 | 10 | 295 | 0.0 | 0.0 | 0.00 | 0.00 | 0.00 | 53 | 1007.6 |
| 20260506081504 | 10 | 295 | 0.0 | 0.0 | 0.00 | 0.00 | 0.00 | 55 | 1007.6 |
| 20260506073100 | 13 | 295 | 0.0 | 0.0 | 0.00 | 0.00 | 0.00 | 47 | 1007.3 |
| 20260506071555 | 12 | 295 | 0.0 | 0.0 | 0.00 | 0.00 | 0.00 | 49 | 1007.1 |
| 20260506061554 | 15 | 295 | 0.0 | 0.0 | 0.00 | 0.00 | 0.00 | 43 | 1006.3 |
| 20260506044544 | 17 | 237 | 0.0 | 0.0 | 0.00 | 0.00 | 0.00 | 36 | 1005.5 |
| 20260506043039 | 17 | 215 | 0.0 | 0.0 | 0.00 | 0.00 | 0.00 | 35 | 1005.1 |
| 20260506041534 | 18 | 173 | 0.0 | 0.0 | 0.00 | 0.00 | 0.00 | 34 | 1004.8 |
| 20260506040031 | 18 | 214 | 0.0 | 1.6 | 0.00 | 0.00 | 0.00 | 33 | 1004.6 |
| 20260506034532 | 18 | 226 | 0.0 | 0.0 | 0.00 | 0.00 | 0.00 | 33 | 1004.2 |
| 20260506033030 | 19 | 241 | 0.0 | 1.6 | 0.00 | 0.00 | 0.00 | 32 | 1003.9 |
| 20260506031543 | 20 | 266 | 0.0 | 9.7 | 0.00 | 0.00 | 0.00 | 32 | 1003.8 |
| 20260506030030 | 20 | 214 | 0.0 | 16.1 | 0.00 | 0.00 | 0.00 | 32 | 1003.8 |
| 20260506024540 | 19 | 283 | 1.6 | 43.5 | 0.00 | 0.00 | 0.00 | 35 | 1003.9 |
| 20260506023027 | 21 | 245 | 3.2 | 14.5 | 0.00 | 0.00 | 0.00 | 28 | 1003.0 |
| 20260506021526 | 21 | 209 | 0.0 | 0.0 | 0.00 | 0.00 | 0.00 | 29 | 1002.6 |
| 20260506020025 | 21 | 190 | 0.0 | 11.3 | 0.00 | 0.00 | 0.00 | 28 | 1002.5 |
| 20260506014527 | 21 | 255 | 1.6 | 17.7 | 0.00 | 0.00 | 0.00 | 27 | 1002.3 |
| 20260506013024 | 22 | 203 | 1.6 | 24.1 | 0.00 | 0.00 | 0.00 | 27 | 1002.3 |
| 20260506011522 | 22 | 228 | 8.0 | 29.0 | 0.00 | 0.00 | 0.00 | 27 | 1002.1 |
| 20260506010023 | 22 | 206 | 1.6 | 38.6 | 0.00 | 0.00 | 0.00 | 26 | 1002.1 |
| 20260506004521 | 24 | 200 | 8.0 | 41.8 | 0.00 | 0.00 | 0.00 | 24 | 1002.0 |
| 20260506003120 | 25 | 219 | 16.1 | 41.8 | 0.00 | 0.00 | 0.00 | 25 | 1001.9 |
| 20260506001518 | 25 | 214 | 17.7 | 30.6 | 0.00 | 0.00 | 0.00 | 24 | 1001.9 |
| 20260506000015 | 25 | 195 | 4.8 | 27.4 | 0.00 | 0.00 | 0.00 | 25 | 1002.0 |
| 20260505234517 | 23 | 231 | 3.2 | 30.6 | 0.00 | 0.00 | 0.00 | 27 | 1002.0 |
| 20260505233012 | 23 | 231 | 12.9 | 29.0 | 0.00 | 0.00 | 0.00 | 30 | 1001.8 |
| 20260505231510 | 23 | 304 | 0.0 | 6.4 | 0.00 | 0.00 | 0.00 | 34 | 1002.2 |
| 20260505230008 | 22 | 217 | 0.0 | 1.6 | 0.00 | 0.00 | 0.00 | 37 | 1002.3 |
| 20260505224507 | 21 | 265 | 1.6 | 16.1 | 0.00 | 0.00 | 0.00 | 36 | 1002.4 |
| 20260505223004 | 21 | 302 | 3.2 | 27.4 | 0.00 | 0.00 | 0.00 | 39 | 1002.8 |
| 20260505221503 | 22 | 311 | 0.0 | 11.3 | 0.00 | 0.00 | 0.00 | 34 | 1002.9 |
| 20260505220002 | 23 | 224 | 9.7 | 38.6 | 0.00 | 0.00 | 0.00 | 32 | 1002.9 |
| 20260505214622 | 23 | 214 | 3.2 | 37.0 | 0.00 | 0.00 | 0.00 | 32 | 1002.8 |
| 20260505213103 | 23 | 205 | 8.0 | 35.4 | 0.00 | 0.00 | 0.00 | 33 | 1003.3 |
| 20260505211603 | 22 | 226 | 14.5 | 41.8 | 0.00 | 0.00 | 0.00 | 34 | 1003.7 |
| 20260505210053 | 22 | 200 | 0.0 | 25.7 | 0.00 | 0.00 | 0.00 | 35 | 1004.0 |
| 20260505204551 | 22 | 205 | 17.7 | 35.4 | 0.00 | 0.00 | 0.00 | 35 | 1004.2 |
| 20260505203151 | 22 | 221 | 11.3 | 33.8 | 0.00 | 0.00 | 0.00 | 35 | 1004.1 |
| 20260505201554 | 22 | 186 | 6.4 | 30.6 | 0.00 | 0.00 | 0.00 | 37 | 1004.3 |
| 20260505200057 | 22 | 237 | 11.3 | 38.6 | 0.00 | 0.00 | 0.00 | 39 | 1004.5 |
| 20260505194546 | 21 | 198 | 11.3 | 32.2 | 0.00 | 0.00 | 0.00 | 40 | 1004.7 |
| 20260505193045 | 21 | 201 | 20.9 | 43.5 | 0.00 | 0.00 | 0.00 | 41 | 1004.7 |
| 20260505191547 | 22 | 217 | 3.2 | 20.9 | 0.00 | 0.00 | 0.00 | 40 | 1004.9 |
| 20260505190043 | 21 | 201 | 14.5 | 40.2 | 0.00 | 0.00 | 0.00 | 41 | 1005.0 |
| 20260505184542 | 21 | 188 | 20.9 | 38.6 | 0.00 | 0.00 | 0.00 | 42 | 1005.3 |
| 20260505183052 | 21 | 226 | 8.0 | 32.2 | 0.00 | 0.00 | 0.00 | 42 | 1005.5 |
| 20260505181539 | 21 | 169 | 16.1 | 35.4 | 0.00 | 0.00 | 0.00 | 43 | 1005.4 |
| 20260505180042 | 20 | 271 | 6.4 | 41.8 | 0.00 | 0.00 | 0.00 | 44 | 1005.6 |
| 20260505174545 | 19 | 229 | 14.5 | 40.2 | 0.00 | 0.00 | 0.00 | 46 | 1005.4 |
| 20260505173037 | 20 | 198 | 17.7 | 37.0 | 0.00 | 0.00 | 0.00 | 46 | 1005.3 |
| 20260505171536 | 20 | 255 | 6.4 | 33.8 | 0.00 | 0.00 | 0.00 | 45 | 1005.2 |
| 20260505170035 | 20 | 214 | 19.3 | 38.6 | 0.00 | 0.00 | 0.00 | 45 | 1004.7 |
| 20260505164536 | 20 | 203 | 22.5 | 40.2 | 0.00 | 0.00 | 0.00 | 45 | 1004.8 |
| 20260505163034 | 20 | 215 | 19.3 | 40.2 | 0.00 | 0.00 | 0.00 | 45 | 1005.0 |
| 20260505161532 | 19 | 238 | 3.2 | 33.8 | 0.00 | 0.00 | 0.00 | 45 | 1005.1 |
| 20260505153034 | 20 | 194 | 8.0 | 27.4 | 0.00 | 0.00 | 0.00 | 41 | 1005.1 |
| 20260505151529 | 20 | 175 | 0.0 | 8.0 | 0.00 | 0.00 | 0.00 | 42 | 1005.1 |